Home > Weather > Oxnard > Past weeks

Flag for USA Weather for the Past 2 Weeks in Oxnard, California, USA

Now
63 °F

Sunny.


Feels Like: 63 °F
Forecast: 51 / 67 °F
Wind: 14 mph from West

Location: Oxnard Airport

Current Time: Apr 28, 2016 at 12:53:49 PM

Latest Report: Apr 28, 2016 at 11:51 AM


Visibility: 10 mi

Pressure: 29.86 "Hg

Humidity: 60%

Dew Point: 49 °F

Location of OxnardLocation

Historic Weather in Oxnard — Graph

°F

Oxnard Temperature Yesterday

Maximum temperature yesterday: 68 °F (at 2:51 PM)
Minimum temperature yesterday: 51 °F (at 3:51 AM)
Average temperature yesterday: 59 °F

High & Low Weather Summary for the Past Weeks

 TemperatureHumidityPressure
High90 °F (Apr 17, 11:51 AM)93% (Apr 14, 6:51 AM)30.14 "Hg (Apr 14, 6:51 AM)
Low46 °F (Apr 26, 5:51 AM)9% (Apr 17, 11:51 AM)29.70 "Hg (Apr 27, 6:51 PM)
Average62 °F60%29.93 "Hg
* Reported Apr 13 10:51 AM — Apr 28 10:51 AM, Oxnard, Weather by CustomWeather, © 2016

Note: Actual official high and low records may vary slightly from our data, if they occured in-between our weather recording intervals... More about our weather records

Advertising

Oxnard Weather History for the Previous 24 Hours

Scroll right to see more
 ConditionsComfort  
Time TempWeatherWind HumidityBarometerVisibility
10:51 AM
Thu, Apr 28
63 °FSunny.10 mph54%29.85 "Hg10 mi
9:51 AM60 °FSunny.8 mph53%29.85 "Hg10 mi
8:51 AM58 °FSunny.No wind58%29.84 "Hg10 mi
7:51 AM53 °FSunny.6 mph69%29.83 "Hg10 mi
6:51 AM48 °FClear.6 mph77%29.81 "Hg10 mi
5:51 AM48 °FClear.5 mph77%29.79 "Hg10 mi
4:51 AM53 °FClear.16 mph72%29.77 "Hg10 mi
3:51 AM53 °FClear.13 mph72%29.77 "Hg10 mi
2:51 AM54 °FClear.17 mph69%29.76 "Hg10 mi
1:51 AM54 °FClear.14 mph67%29.76 "Hg10 mi
12:51 AM55 °FClear.23 mph64%29.74 "Hg10 mi
11:51 PM
Wed, Apr 27
55 °FClear.29 mph67%29.74 "Hg10 mi
10:51 PM55 °FClear.24 mph67%29.74 "Hg10 mi
9:51 PM55 °FClear.30 mph64%29.73 "Hg9 mi
8:51 PM57 °FClear.31 mph58%29.72 "Hg9 mi
7:51 PM59 °FSunny.35 mph56%29.71 "Hg9 mi
6:51 PM61 °FSunny.33 mph67%29.70 "Hg8 mi
5:51 PM64 °FSunny.35 mph68%29.70 "Hg8 mi
4:51 PM65 °FSunny.36 mph68%29.72 "Hg7 mi
3:51 PM65 °FSunny.18 mph63%29.79 "Hg10 mi
2:51 PM68 °FSunny.14 mph51%29.81 "Hg10 mi
1:51 PM65 °FSunny.10 mph52%29.83 "Hg10 mi
12:51 PM65 °FSunny.12 mph52%29.86 "Hg10 mi
Weather by CustomWeather, © 2016

See weather overviewHow to use our weather pages